Tracking 30970 objects as of 3-Jul-2025
HD Live streaming from Space Station
objects crossing your sky now

COSMOS 1275 DEB

Track COSMOS 1275 DEB now!
10-day predictions


NORAD ID: 39936
Int'l Code: 1981-053NC
Perigee: 891.5 km
Apogee: 979.7 km
Inclination: 83.1 °
Period: 103.6 minutes
Semi major axis: 7306 km
RCS: 0.0039 m2 (small)
Launch date: April 25, 1981
Source: Commonwealth of Independent States (former USSR) (CIS)
Launch site: PLESETSK MISSILE AND SPACE COMPLEX (PKMTR)

Note: This is SATELLITE DEBRIS
Your satellite tracking list
STARLINK-1533
Track 1 satellite(s)




NASA's NSSDC Master Catalog

Two Line Element Set (TLE):
1 39936U 81053MW  25176.06111232  .00001059  00000-0  83279-3 0  9991
2 39936  83.1475 103.3174 0060356 130.7120 229.9310 13.90058075549027
Source of the keplerian elements: AFSPC